Terminal Aerodrome Forecast
Issued by NWS

Home | Current Version | Previous Version | Graphics & Text | Print | Product List | Glossary Off
Versions: 1 2 3 4 5 6 7 8 9 10 11 12 13 14 15 16 17 18 19 20 21 22 23 24 25 26 27 28 29 30 31 32 33 34 35 36 37 38 39 40 41 42 43 44 45 46 47 48

000
FTUS43 KDDC 161627 AAB
TAFGCK
TAF AMD
KGCK 161627Z 1616/1712 15012KT P6SM SCT110
      TEMPO 1622/1701 VRB26G40KT 5SM +TSRAGS OVC030CB
     FM170100 14010KT P6SM VCTS OVC040CB
     FM170200 09010KT P6SM OVC030=

USA.gov is the U.S. government's official web portal to all federal, state and local government web resources and services.